This is the latest recevied weather packets stored in our database for station/object KC3DGM. If no packets are shown the sender has not sent any weather packets the latest 10 day(s).
| Time | Temp. | Humidity | Pressure | Rain* | Wind** | Luminosity | Snow |
|---|---|---|---|---|---|---|---|
| 1777464069 | 12.78° C | 95% | 983.4 hPa | 0 mm | - | 24 W/m² | - |
| 1777463763 | 12.78° C | 95% | 983.5 hPa | 0 mm | - | 24 W/m² | - |
| 1777463458 | 12.22° C | 95% | 983.2 hPa | 0 mm | - | 30 W/m² | - |
| 1777463154 | 12.22° C | 95% | 983.6 hPa | 0 mm | - | 28 W/m² | - |
| 1777462851 | 12.22° C | 96% | 983.3 hPa | 0 mm | - | 30 W/m² | - |
| 1777462546 | 12.22° C | 96% | 983.5 hPa | 0 mm | - | 26 W/m² | - |
| 1777462242 | 12.22° C | 96% | 983.4 hPa | 0 mm | - | 18 W/m² | - |
| 1777461939 | 12.22° C | 96% | 983.5 hPa | 0 mm | - | 20 W/m² | - |
| 1777461636 | 12.22° C | 96% | 983.6 hPa | 0 mm | - | 12 W/m² | - |
| 1777461330 | 12.22° C | 96% | 983.4 hPa | 0 mm | - | 9 W/m² | - |
| 1777461027 | 12.22° C | 96% | 983.3 hPa | 0 mm | - | 6 W/m² | - |
| 1777460722 | 12.22° C | 97% | 983.3 hPa | 0 mm | - | 6 W/m² | - |
| 1777460419 | 12.22° C | 97% | 983.2 hPa | 0 mm | - | 6 W/m² | - |
| 1777460114 | 12.22° C | 97% | 983 hPa | 0 mm | - | 4 W/m² | - |
| 1777459812 | 12.22° C | 97% | 982.8 hPa | 0 mm | - | 4 W/m² | - |
| 1777459509 | 11.67° C | 97% | 982.7 hPa | 0 mm | - | 3 W/m² | - |
| 1777459206 | 11.67° C | 97% | 982.9 hPa | 0 mm | - | 1 W/m² | - |
| 1777458904 | 11.67° C | 97% | 983 hPa | 0 mm | - | 0 W/m² | - |
| 1777458600 | 11.67° C | 97% | 982.8 hPa | 0 mm | - | 0 W/m² | - |
| 1777458296 | 11.67° C | 97% | 982.8 hPa | 0 mm | - | 0 W/m² | - |
| 1777457992 | 11.67° C | 97% | 983.1 hPa | 0 mm | - | 0 W/m² | - |
| 1777457689 | 11.67° C | 97% | 982.8 hPa | 0 mm | - | 0 W/m² | - |
| 1777457388 | 11.11° C | 97% | 983 hPa | 0 mm | - | 0 W/m² | - |
| 1777457084 | 11.11° C | 97% | 983.1 hPa | 0 mm | - | 0 W/m² | - |
| 1777456780 | 11.11° C | 97% | 982.8 hPa | 0 mm | - | 0 W/m² | - |
* Rain latest hour (hover to see other rain measurements)
** Current wind speed in m/s (hover to see current wind gust speed)